EW1994 Weather Reports


Display with metric or nautical units.
time (UTC)temp
F
wind
direction
speed
MPH
gust
MPH
rain 1hr
in
rain 24hr
in
rain mn
in
humidity
%
barometer
mb
20260902200026 68 194 0.0 0.0 0.00 0.00 0.00 63 1005.0
20260902194534 68 149 0.0 1.0 0.00 0.00 0.00 63 1005.2
20260902193041 67 5 0.0 2.0 0.00 0.00 0.00 64 1005.3
20260902191519 67 273 0.0 3.0 0.00 0.00 0.00 65 1005.5
20260902190026 67 258 0.0 3.0 0.00 0.00 0.00 66 1005.6
20260902184528 67 224 0.0 2.0 0.00 0.00 0.00 66 1005.6
20260902183031 67 118 0.0 2.0 0.00 0.00 0.00 65 1006.0
20260902181533 67 275 0.0 3.0 0.00 0.00 0.00 65 1006.2
20260902180028 67 222 0.0 3.0 0.00 0.00 0.00 67 1006.3
20260902174532 66 279 0.0 3.0 0.00 0.00 0.00 69 1006.4
20260902173030 66 308 0.0 5.0 0.00 0.00 0.00 69 1006.5
20260902171534 65 208 0.0 4.0 0.00 0.00 0.00 73 1006.6
20260902170033 65 281 0.0 3.0 0.00 0.00 0.00 75 1006.7
20260902164528 64 221 0.0 3.0 0.00 0.00 0.00 76 1006.8
20260902163034 63 135 0.0 2.0 0.00 0.00 0.00 80 1006.8
20260902161530 62 240 0.0 2.0 0.00 0.00 0.00 81 1007.0
20260902160031 62 43 0.0 2.0 0.00 0.00 0.00 84 1007.1
20260902154524 61 277 0.0 1.0 0.00 0.00 0.00 86 1007.3
20260902153044 59 101 0.0 2.0 0.00 0.00 0.00 89 1007.4
20260902151531 58 86 0.0 1.0 0.00 0.00 0.00 91 1007.6
20260902150032 57 342 0.0 0.0 0.00 0.00 0.00 93 1007.9
20260902144517 57 342 0.0 0.0 0.00 0.00 0.00 93 1008.1
20260902143023 56 342 0.0 0.0 0.00 0.00 0.00 93 1008.3
20260902141526 56 342 0.0 0.0 0.00 0.00 0.00 93 1008.4
20260902140031 56 342 0.0 0.0 0.00 0.00 0.00 93 1008.3
20260902134540 56 342 0.0 0.0 0.00 0.00 0.00 93 1008.4
20260902133020 56 342 0.0 0.0 0.00 0.00 0.00 93 1008.3
20260902131538 56 342 0.0 0.0 0.00 0.00 0.00 93 1008.4
20260902130030 56 342 0.0 0.0 0.00 0.00 0.00 93 1008.7
20260902124533 56 342 0.0 0.0 0.00 0.00 0.00 93 1008.7
20260902123034 56 342 0.0 0.0 0.00 0.00 0.00 93 1008.7
20260902121523 56 342 0.0 0.0 0.00 0.00 0.00 93 1008.8
20260902120028 56 342 0.0 0.0 0.00 0.00 0.00 92 1008.8
20260902114529 56 342 0.0 0.0 0.00 0.00 0.00 92 1008.9
20260902113035 56 342 0.0 0.0 0.00 0.00 0.00 92 1009.0
20260902111534 57 342 0.0 0.0 0.00 0.00 0.00 92 1009.1
20260902110038 57 342 0.0 0.0 0.00 0.00 0.00 91 1009.3
20260902104530 57 293 0.0 0.0 0.00 0.00 0.00 92 1009.3
20260902103031 58 293 0.0 0.0 0.00 0.00 0.00 91 1009.4
20260902101537 58 293 0.0 2.0 0.00 0.00 0.00 91 1009.4
20260902100033 58 76 0.0 3.0 0.00 0.00 0.00 91 1009.5
20260902094530 58 82 0.0 0.0 0.00 0.00 0.00 91 1009.6
20260902093037 58 82 0.0 0.0 0.00 0.00 0.00 91 1009.5
20260902091531 58 82 0.0 0.0 0.00 0.00 0.00 91 1009.6
20260902090036 58 82 0.0 0.0 0.00 0.00 0.00 91 1009.7
20260902084533 58 82 0.0 0.0 0.00 0.00 0.00 91 1009.8
20260902083028 58 82 0.0 0.0 0.00 0.00 0.00 91 1010.0
20260902081533 58 82 0.0 1.0 0.00 0.00 0.00 91 1010.0
20260902080032 59 146 0.0 0.0 0.00 0.00 0.00 90 1010.1
20260902074532 59 146 0.0 0.0 0.00 0.00 0.00 90 1010.2
20260902073026 59 146 0.0 0.0 0.00 0.00 0.00 90 1010.2
20260902071533 59 146 0.0 1.0 0.00 0.00 0.00 90 1010.3
20260902070033 59 146 0.0 0.0 0.00 0.00 0.00 90 1010.4
20260902064517 59 146 0.0 0.0 0.00 0.00 0.00 90 1010.5
20260902063026 59 170 0.0 1.0 0.00 0.00 0.00 91 1010.5
20260902061546 59 294 0.0 0.0 0.00 0.00 0.00 91 1010.4
20260902060006 59 294 0.0 0.0 0.00 0.00 0.00 91 1010.5
20260902054517 58 294 0.0 0.0 0.00 0.00 0.00 90 1010.6
20260902053027 59 294 0.0 0.0 0.00 0.00 0.00 90 1010.8
20260902051526 59 294 0.0 0.0 0.00 0.00 0.00 90 1010.8
20260902050029 59 294 0.0 0.0 0.00 0.00 0.00 89 1010.8
20260902044510 60 294 0.0 2.0 0.00 0.00 0.00 89 1010.7
20260902043016 60 9 0.0 2.0 0.00 0.00 0.00 88 1010.8
20260902041523 61 136 0.0 2.0 0.00 0.00 0.00 85 1010.8
20260902040027 62 306 0.0 1.0 0.00 0.00 0.00 84 1010.8
20260902034537 62 307 0.0 0.0 0.00 0.00 0.00 83 1010.7
20260902033014 62 307 0.0 1.0 0.00 0.00 0.00 82 1010.6
20260902031518 62 315 0.0 0.0 0.00 0.00 0.00 82 1010.4
20260902030025 63 315 0.0 1.0 0.00 0.00 0.00 81 1010.3
20260902024532 63 9 0.0 2.0 0.00 0.00 0.00 80 1010.3
20260902023031 63 342 0.0 0.0 0.00 0.00 0.00 80 1010.3
20260902021513 64 323 0.0 2.0 0.00 0.00 0.00 79 1010.2
20260902020021 64 332 0.0 2.0 0.00 0.00 0.00 77 1010.2
20260902014527 64 85 0.0 4.0 0.00 0.00 0.00 76 1010.3
20260902013032 65 158 0.0 6.0 0.00 0.00 0.00 75 1010.2
20260902011533 65 97 0.0 2.0 0.00 0.00 0.00 75 1010.2
20260902010017 65 138 0.0 3.0 0.00 0.00 0.00 75 1010.1
20260902004525 65 161 0.0 3.0 0.00 0.00 0.00 76 1010.2
20260902003033 65 128 0.0 2.0 0.00 0.00 0.00 76 1010.3
20260902001540 65 82 0.0 1.0 0.00 0.00 0.00 76 1010.1
20260902000037 65 34 0.0 3.0 0.00 0.00 0.00 76 1010.1
20260901234521 65 248 0.0 2.0 0.00 0.00 0.00 75 1010.1
20260901233027 65 277 1.0 8.0 0.00 0.00 0.00 75 1010.1
20260901231531 65 155 0.0 3.0 0.00 0.00 0.00 74 1010.2
20260901230033 65 103 0.0 1.0 0.00 0.00 0.00 76 1010.2
20260901224533 65 149 0.0 5.0 0.00 0.00 0.00 75 1010.1
20260901223024 65 149 0.0 2.0 0.00 0.00 0.00 75 1010.2
20260901221525 65 269 0.0 6.0 0.00 0.00 0.00 75 1010.2
20260901220031 66 145 0.0 4.0 0.00 0.00 0.00 75 1010.1
20260901214532 66 316 0.0 3.0 0.00 0.00 0.00 74 1010.1
20260901213032 67 55 0.0 2.0 0.00 0.00 0.00 73 1010.2
20260901211527 67 143 0.0 4.0 0.00 0.00 0.00 72 1010.2
20260901210029 66 290 0.0 4.0 0.00 0.00 0.00 74 1010.2
20260901204532 66 285 0.0 4.0 0.00 0.00 0.00 73 1010.4
20260901203037 67 51 0.0 7.0 0.00 0.00 0.00 73 1010.5
20260901201520 66 242 0.0 3.0 0.00 0.00 0.00 74 1010.5